Retour au catalogue

ONEWEB-0264

ActifCommunicationsPO
NORAD 48982·PAYLOAD·🇬🇧 United Kingdom

Lancé Jul 1, 2021 depuis Vostochny Cosmodrome

Loading…

Prochains Passages (prochaines 24 heures)

TLE

FraisSource: CelesTrak SupGP

Époque: Sep 14, 2026, 19:10 UTC

1 48982C 21060R   26257.79878887  .00003266  00000+0  85542-2 0  2573
2 48982  87.9147 210.9870 0002256  78.3066 348.4564 13.16591782    19

Suivez ONEWEB-0264 en temps réel avec AllMySat

Download on the App Store